Location: Poughquag
(41.6090°N, 73.6820°W)
Time: 08:53:40
(UTC-05:00)

DIWATA 2B (PO-101) - Pass Details

Date: 21 November 2025
Orbit: 563 x 574 km, 98.1° (Epoch: 07 December)

Event Time Altitude Azimuth Distance (km) Brightness Sun altitude
Rises 03:50:33 0° 116° (ESE) 2,761 ? -33.5°
Reaches altitude 10° 03:53:57 10° 85° (E) 1,867 ? -32.9°
Maximum altitude 03:55:28 12° 63° (ENE) 1,745 ? -32.6°
Drops below altitude 10° 03:57:00 10° 40° (NE) 1,870 ? -32.3°
Enters shadow 03:58:28 - 24° (NNE) 2,184 ? -32.0°
